User: anonymous   Login
Location: Unspecified
(0.0000°N, 0.0000°E)
Time: 18:52:52
(UTC+00:00)
Language:

VENTA 1 - Orbit

View from above orbital plane
View from above orbital plane
View from above satellite
View from above satellite

Ground track
Ground track

The orbit data is extracted from the following two-line orbital elements,

1 42791U 17036AC  19077.95191761 +.00001424 +00000-0 +64245-4 0  9999
2 42791 097.3632 137.9784 0011069 184.3086 175.8057 15.22581041096301
Epoch (UTC): 18 March 2019 22:50:45
Eccentricity: 0.0011069
inclination: 97.3632°
perigee height: 490 km
apogee height: 505 km
right ascension of ascending node: 137.9784°
argument of perigee: 184.3086°
revolutions per day: 15.22581041
mean anomaly at epoch: 175.8057°
orbit number at epoch: 9630

The dashed part of the orbit path shows where the satellite is in the earth's shadow,  

DLR